Welcome to the New NWS' Forecast!
Most changes are behind the scenes, but click here for differences you might notice.

Regional Weather Roundup (RWR)

Issued by National Weather Service (NWS)

                            
000
ASUS42 KTBW 172117
RWRFL 
FLORIDA REGIONAL WEATHER ROUNDUP
NATIONAL WEATHER SERVICE TAMPA BAY RUSKIN FL
400 PM EST SAT NOV 17 2018

NOTE: "FAIR" INDICATES FEW OR NO CLOUDS BELOW 12,000 FEET WITH NO
SIGNIFICANT WEATHER AND/OR OBSTRUCTIONS TO VISIBILITY.

FLZ001>010-012>015-112-114-115-172200-
PANHANDLE FLORIDA
  
CITY           SKY/WX    TMP DP  RH WIND       PRES   REMARKS
PENSACOLA      FAIR      66  43  43 SE5       30.18F                  
PENSACOLA NAS  PTSUNNY   64  46  52 S5        30.18F                  
CRESTVIEW      FAIR      67  42  40 E5        30.19F                  
DUKE FIELD     FAIR      67  43  42 NW5       30.17F                  
VALPARAISO     FAIR      66  44  45 S5        30.17F                  
MARY ESTHER    PTSUNNY   65  44  45 S6        30.16F                  
PANAMA CITY    FAIR      69  43  38 MISG      30.17F                  
TYNDALL AFB    FAIR      66  45  46 W6        30.19F                  
APALACHICOLA   FAIR      62  43  49 SE5       30.18S                  

STATION/POSITION SKY/WX   TEMP    WIND        PRES    WAVE   SWELL
                          AIR SEA DIR/SP/G            HT/PER HT/PER
                          (F)     (DEG/KT/KT) (MB)    (FT/S) (FT/S)
30.1N   87.6W              63                 1022.5F   1
29.2N   88.2W                 72   30/  6/ 10 1022.2
PANAMA CITY BEAC           65 69  250/  4/  5 1022.2F
TOWER C                    62      50/  7/  8 1022.0F

$$
FLZ011-016>038-118-127-128-134-139-239-172200-
NORTH FLORIDA
  
CITY           SKY/WX    TMP DP  RH WIND       PRES   REMARKS
MARIANNA       FAIR      68  42  38 N6        30.18S                  
TALLAHASSEE    FAIR      68  45  43 N3        30.18S                  
PERRY          FAIR      68  44  41 N3        30.18S                  
LIVE OAK       SUNNY     66  43  42 N5        30.17S                  
CROSS CITY     FAIR      68  43  40 NE6       30.16S                  
LAKE CITY      FAIR      66  43  42 NE6       30.17S                  
GAINESVILLE    FAIR      71  46  40 NE6       30.18R                  
WILLISTON        N/A    N/A N/A N/A MISG        N/A                   
MAYPORT NAS    FAIR      67  55  65 N9        30.17R                  
JACKSONVILLE   PTSUNNY   70  47  43 N6        30.15S                  
JAX NAS        FAIR      70  47  43 NW7       30.16S                  
JAX CECIL      SUNNY     73  46  38 CALM      30.15F                  
FERNANDINA BEA FAIR      67  54  63 E8        30.17S                  
ST AUGUSTINE   FAIR      66  56  70 N9        30.17R                  
PALM COAST     SUNNY     68  57  68 N10       30.14S                  

STATION/POSITION SKY/WX   TEMP    WIND        PRES    WAVE   SWELL
                          AIR SEA DIR/SP/G            HT/PER HT/PER
                          (F)     (DEG/KT/KT) (MB)    (FT/S) (FT/S)
SHELL POINT      NOT AVBL
KEATON BEACH               61     300/  8/  9 1022.0R
CEDAR KEY                  64     290/  7/  9 1021.2F
FERNANDINA                 66 67   50/  2/  5 1022.5R
30.7N   81.3W                 69                N/A     2/ 9   2/11
MAYPORT                    64 69   50/  8/  9 1021.9R
31.4N   80.9W              65 70   40/  8/  8 1021.8R   2/ 9   2/ 9
ST AUGUSTINE               64 70  360/ 13/ 15 1021.4R

$$
FLZ040-043>046-052-053-057-058-063-144-172200-
INTERIOR CENTRAL FLORIDA
  
CITY           SKY/WX    TMP DP  RH WIND       PRES   REMARKS
OCALA          FAIR      72  48  42 VRB3      30.15R                  
LEESBURG       FAIR      73  51  46 NE5       30.13S                  
SANFORD        FAIR      72  58  61 E10       30.12R                  
ORLANDO EXEC   FAIR      74  55  51 E9        30.11S                  
ORLANDO INTL   FAIR      75  54  47 NE10      30.11S                  
KISSIMMEE      FAIR      75  53  46 E8        30.12R                  
WINTER HAVEN   FAIR      77  52  41 E8        30.12S                  
LAKELAND       SUNNY     75  48  38 E7        30.11S                  
BARTOW         SUNNY     73  52  46 NE9       30.10S                  
SEBRING        FAIR      79  50  35 E10       30.08S                  
OKEECHOBEE     FAIR      77  55  47 E7        30.07S                  

$$
FLZ041-047-054-059-064-141-147-172200-
EAST CENTRAL FLORIDA
  
CITY           SKY/WX    TMP DP  RH WIND       PRES   REMARKS
ORMOND BEACH   SUNNY     68  59  73 N8        30.14R                  
DAYTONA BEACH  FAIR      71  60  68 NE12      30.14R                  
DELAND         FAIR      72  59  64 NE10      30.13R                  
NEW SMYRNA BEA MOSUNNY   72  59  64 N9        30.14S                  
JFK SPACE CTR  FAIR      73  58  59 N7          N/A                   
TITUSVILLE     MOSUNNY   75  61  60 N12       30.12R                  
CAPE CANAVERAL FAIR      76  57  51 NE8       30.10R                  
PATRICK AFB    FAIR      74  57  54 NE9       30.10S                  
MELBOURNE      FAIR      74  56  53 NE9       30.10S                  
VERO BEACH     FAIR      76  57  51 NE8       30.09S                  
FT PIERCE      FAIR      75  57  53 NE5       30.08F                  
STUART         MOSUNNY   77  55  47 NE7       30.09S                  

STATION/POSITION SKY/WX   TEMP    WIND        PRES    WAVE   SWELL
                          AIR SEA DIR/SP/G            HT/PER HT/PER
                          (F)     (DEG/KT/KT) (MB)    (FT/S) (FT/S)
28.5N   80.2W              74      70/  6/  8 1019.8
28.9N   78.5W              74 81   50/ 10/ 14 1019.8R
TRIDENT PIER               72 77   20/  5/  9 1020.9R
28.4N   80.5W                 77                N/A     2/ 9   2/11
27.5N   80.2W                 78                N/A     3/ 9   2/11

$$
FLZ050-056-061-142-242-148-248-149-249-151-251-155-255-
160-260-172200-
WEST CENTRAL FLORIDA
  
CITY           SKY/WX    TMP DP  RH WIND       PRES   REMARKS
CRYSTAL RIVER  FAIR      72  45  37 NE5       30.13S                  
BROOKSVILLE    FAIR      74  47  38 NE3       30.13S                  
CLEARWATER AIR FAIR      66  54  63 NW6       30.12S                  
ST PETE CLEARW FAIR      72  48  42 N5        30.11S                  
TAMPA INTL     PTSUNNY   72  52  49 CALM      30.11S                  
TAMPA EXEC     FAIR      73  50  43 N3        30.12S                  
PLANT CITY     FAIR      75  50  41 N5        30.13R                  
MACDILL AFB    FAIR      72  51  48 N6          N/A                   
PETER O KNIGHT PTSUNNY   72  52  49 NE6       30.11S                  
ST PETERSBURG  FAIR      73  54  51 N7        30.09S                  
SARASOTA       FAIR      77  48  35 NE7       30.08S                  
VENICE         FAIR      77  52  41 N8G14     30.08S                  

STATION/POSITION SKY/WX   TEMP    WIND        PRES    WAVE   SWELL
                          AIR SEA DIR/SP/G            HT/PER HT/PER
                          (F)     (DEG/KT/KT) (MB)    (FT/S) (FT/S)
CLEARWATER BEACH                  340/ 10/ 12 1020.1S
MIDDLE TAMPA BAY           70      10/ 11/ 12 1019.5S
VENICE                     75 75   60/  6/  8 1018.7S

$$
FLZ066-069-070-075>078-162-262-165-265-172200-
SOUTHWEST FLORIDA AND KEYS
  
CITY           SKY/WX    TMP DP  RH WIND       PRES   REMARKS
PUNTA GORDA    FAIR      77  52  41 NE9       30.08S                  
FT MYERS       FAIR      77  54  44 NE7       30.05S                  
SOUTHWEST INTL FAIR      78  55  44 E10       30.06R                  
NAPLES         CLOUDY    78  58  49 NE10      30.04F                  
MARCO ISLAND   CLOUDY    77  62  59 NE8       30.06S                  
IMMOKALEE      SUNNY     79  55  44 NE10      30.06S                  
MARATHON       CLOUDY    76  69  79 NE15      30.02S                  
KEY WEST NAS   CLOUDY    77  66  68 NE12      30.03S                  
KEY WEST INTL  CLOUDY    78  67  68 NE10      30.03R                  

STATION/POSITION SKY/WX   TEMP    WIND        PRES    WAVE   SWELL
                          AIR SEA DIR/SP/G            HT/PER HT/PER
                          (F)     (DEG/KT/KT) (MB)    (FT/S) (FT/S)
NAPLES                     77 76   60/  6/ 10 1017.2F
26.0N   85.6W              71 79   50/  8/ 12 1019.4
DRY TORTUGAS               72      10/ 10/ 11 1018.0R
SAND KEY                   74                 1017.1R
SOMBRERO KEY               76      30/ 18/ 21 1015.7F
LONG KEY                   76 76   50/ 17/ 19 1016.7R
MOLASSES REEF              77 80   70/ 18/ 21 1016.9S

$$
FLZ067-068-071>074-168-172>174-172200-
SOUTHEAST FLORIDA 
  
CITY           SKY/WX    TMP DP  RH WIND       PRES   REMARKS
W PALM BEACH   FAIR      76  60  57 NE13      30.07R                  
BOCA RATON     MOSUNNY   77  61  57 NE14      30.06S                  
FT LAUDER-EXEC FAIR      76  63  64 NE10      30.05S                  
FT LAUDERDALE  PTSUNNY   77  63  61 NE13      30.04S                  
POMPANO BEACH  FAIR      79  61  53 NE13      30.05S                  
PEMBROKE PINES CLOUDY    78  62  57 NE13      30.06S                  
OPA LOCKA      CLOUDY    78  63  59 NE14      30.05S                  
MIAMI          CLOUDY    76  64  66 E14       30.05R                  
WEST KENDALL   CLOUDY    78  62  57 E15       30.04R                  
HOMESTEAD      CLOUDY    76  65  66 NE15G21   30.03S                  

STATION/POSITION SKY/WX   TEMP    WIND        PRES    WAVE   SWELL
                          AIR SEA DIR/SP/G            HT/PER HT/PER
                          (F)     (DEG/KT/KT) (MB)    (FT/S) (FT/S)
VIRGINIA KEY               77 79   30/  7/ 13 1017.0S
LAKE WORTH                 75 80   50/ 15/ 16 1019.0S
FOWEY ROCKS                76 80   40/ 16/ 20 1017.7F
SETTLEMENT POINT           75      60/ 12/ 14 1018.2S

$$